TimeMST,TemperatureF,Dew PointF,Humidity,Sea Level PressureIn,VisibilityMPH,Wind Direction,Wind SpeedMPH,Gust SpeedMPH,PrecipitationIn,Events,Conditions,WindDirDegrees,DateUTC
12:51 AM,54.0,37.9,55,29.96,10.0,South,5.8,-,N/A,,Mostly Cloudy,170,2013-12-08 07:51:00
1:51 AM,54.0,37.9,55,29.96,10.0,West,3.5,-,N/A,,Mostly Cloudy,260,2013-12-08 08:51:00
2:51 AM,54.0,37.0,53,29.98,10.0,SW,6.9,-,N/A,,Mostly Cloudy,230,2013-12-08 09:51:00
3:51 AM,54.0,37.9,55,29.98,10.0,SW,4.6,-,N/A,,Overcast,220,2013-12-08 10:51:00
4:51 AM,52.0,39.9,63,29.99,10.0,SSW,3.5,-,N/A,,Overcast,210,2013-12-08 11:51:00
5:51 AM,53.1,37.9,57,30.01,10.0,West,8.1,-,N/A,,Overcast,260,2013-12-08 12:51:00
6:51 AM,52.0,36.0,54,30.03,10.0,West,10.4,-,N/A,,Overcast,260,2013-12-08 13:51:00
7:51 AM,51.1,37.9,61,30.05,10.0,WSW,5.8,-,N/A,,Mostly Cloudy,240,2013-12-08 14:51:00
8:51 AM,52.0,35.1,53,30.06,10.0,West,10.4,-,N/A,,Mostly Cloudy,260,2013-12-08 15:51:00
9:51 AM,53.1,35.1,50,30.09,10.0,West,9.2,-,N/A,,Mostly Cloudy,260,2013-12-08 16:51:00
10:51 AM,54.0,32.0,43,30.08,10.0,West,8.1,-,N/A,,Scattered Clouds,260,2013-12-08 17:51:00
11:51 AM,55.0,24.1,30,30.06,10.0,WNW,9.2,-,N/A,,Scattered Clouds,300,2013-12-08 18:51:00
12:51 PM,55.0,24.1,30,30.05,10.0,WNW,11.5,-,N/A,,Mostly Cloudy,290,2013-12-08 19:51:00
1:51 PM,57.9,24.1,27,30.02,10.0,SW,10.4,-,N/A,,Mostly Cloudy,230,2013-12-08 20:51:00
2:51 PM,55.9,24.1,29,30.00,10.0,West,9.2,-,N/A,,Mostly Cloudy,260,2013-12-08 21:51:00
3:51 PM,57.0,24.1,28,29.99,10.0,West,8.1,-,N/A,,Mostly Cloudy,270,2013-12-08 22:51:00
4:51 PM,55.9,21.9,27,29.99,10.0,WNW,12.7,-,N/A,,Mostly Cloudy,290,2013-12-08 23:51:00
5:51 PM,55.0,19.0,24,30.01,10.0,WNW,12.7,-,N/A,,Mostly Cloudy,300,2013-12-09 00:51:00
6:51 PM,54.0,19.0,25,30.03,10.0,West,10.4,-,N/A,,Mostly Cloudy,280,2013-12-09 01:51:00
7:51 PM,51.1,23.0,33,30.05,10.0,WSW,8.1,-,N/A,,Mostly Cloudy,250,2013-12-09 02:51:00
8:51 PM,50.0,21.0,32,30.04,10.0,WSW,8.1,-,N/A,,Mostly Cloudy,250,2013-12-09 03:51:00
9:51 PM,48.9,19.9,32,30.06,10.0,West,8.1,-,N/A,,Mostly Cloudy,270,2013-12-09 04:51:00
10:51 PM,48.9,14.0,25,30.08,10.0,WNW,11.5,-,N/A,,Overcast,290,2013-12-09 05:51:00
11:51 PM,46.9,14.0,27,30.08,10.0,West,9.2,-,N/A,,Scattered Clouds,270,2013-12-09 06:51:00